Monroe, LA

3:13 PM CDT on June 26, 2017 (GMT -0500)
Monroe Regional

Weather History for KMLU - January, 2014

Change the Weather History Date:

Thursday, January 16, 2014

  Actual Average Record
Temperature  
Mean Temperature 46 °F 46 °F  
Max Temperature 65 °F 57 °F 79 °F (1936)
Min Temperature 26 °F 35 °F 13 °F (1963)
Degree Days  
Heating Degree Days 19 19  
Month to date heating degree days 354 304  
Since 1 July heating degree days 1412 1206  
Cooling Degree Days 0 0  
Month to date cooling degree days 0 0  
Year to date cooling degree days 0 0  
Moisture  
Dew Point 27 °F    
Average Humidity 56    
Maximum Humidity 85    
Minimum Humidity 26    
Precipitation  
Precipitation 0.00 in 0.16 in 1.41 in (2011)
Month to date precipitation 0.85 2.56  
Year to date precipitation 0.85 2.56  
Snow  
Snow 0.00 in - - ()
Month to date snowfall 0.0  
Since 1 July snowfall T  
Snow Depth 0.00 in    
Sea Level Pressure  
Sea Level Pressure 30.08 in    
Wind  
Wind Speed 10 mph (SW)    
Max Wind Speed 25 mph    
Max Gust Speed 32 mph    
Visibility 10 miles    
Events      
T = Trace of Precipitation, MM = Missing Value Source: NWS Daily Summary

Daily Weather History Graph

Daily Weather History Graph

Search for Another Location

Airport or City:

Trip Planner

Search our weather history database for the weather conditions in past years. The results will help you decide how hot, cold, wet, or windy it might be!

Date:

Astronomy

Jan. 16, 2014 Rise Set
Actual Time 7:09 AM CST 5:26 PM CST
Civil Twilight 6:43 AM CST 5:52 PM CST
Nautical Twilight 6:13 AM CST 6:23 PM CST
Astronomical Twilight 5:43 AM CST 6:52 PM CST
Moon 6:12 PM CST (1/16) 7:08 AM CST (1/16)
Length of Visible Light 11h 09m
Length of Day
10h 16m
Full, 100% of the Moon is Illuminated
Jan 16
Full
Jan 23
Last Quarter
Jan 30
New
Feb 6
First Quarter
Feb 14
Full

Hourly Weather History & Observations

Time (CST) Temp. Windchill Dew Point Humidity Pressure Visibility Wind Dir Wind Speed Gust Speed Precip Events Conditions
12:53 AM 28.9 °F - 23.0 °F 78% 30.17 in 10.0 mi Calm Calm - N/A   Clear
1:53 AM 28.9 °F - 25.0 °F 85% 30.17 in 10.0 mi Calm Calm - N/A   Clear
2:53 AM 30.0 °F 26.5 °F 23.0 °F 75% 30.16 in 10.0 mi South 3.5 mph - N/A   Clear
3:53 AM 30.9 °F 27.5 °F 23.0 °F 72% 30.14 in 10.0 mi South 3.5 mph - N/A   Clear
4:53 AM 30.0 °F 25.2 °F 21.0 °F 69% 30.14 in 10.0 mi South 4.6 mph - N/A   Clear
5:53 AM 32.0 °F 28.7 °F 23.0 °F 69% 30.14 in 10.0 mi South 3.5 mph - N/A   Clear
6:53 AM 33.1 °F 27.7 °F 24.1 °F 70% 30.12 in 10.0 mi South 5.8 mph - N/A   Clear
7:53 AM 34.0 °F 28.8 °F 24.1 °F 67% 30.12 in 10.0 mi South 5.8 mph - N/A   Clear
8:53 AM 41.0 °F 35.8 °F 25.0 °F 53% 30.12 in 10.0 mi SSW 8.1 mph - N/A   Clear
9:53 AM 48.0 °F - 24.1 °F 39% 30.12 in 10.0 mi SSW 11.5 mph - N/A   Clear
10:53 AM 54.0 °F - 25.0 °F 33% 30.10 in 10.0 mi SW 18.4 mph 24.2 mph N/A   Clear
11:53 AM 59.0 °F - 27.0 °F 29% 30.04 in 10.0 mi SW 17.3 mph 26.5 mph N/A   Clear
12:53 PM 62.1 °F - 28.0 °F 28% 30.01 in 10.0 mi SW 21.9 mph 31.1 mph N/A   Clear
1:53 PM 64.0 °F - 28.9 °F 27% 29.98 in 10.0 mi WSW 21.9 mph 29.9 mph N/A   Clear
2:53 PM 64.0 °F - 30.0 °F 28% 29.98 in 10.0 mi WSW 17.3 mph 27.6 mph N/A   Clear
3:53 PM 62.1 °F - 30.0 °F 30% 29.99 in 10.0 mi West 17.3 mph 25.3 mph N/A   Clear
4:53 PM 60.1 °F - 30.0 °F 32% 30.01 in 10.0 mi WSW 13.8 mph - N/A   Clear
5:53 PM 55.0 °F - 30.9 °F 40% 30.01 in 10.0 mi SW 10.4 mph - N/A   Clear
6:53 PM 55.0 °F - 30.9 °F 40% 30.01 in 10.0 mi WSW 10.4 mph - N/A   Clear
7:53 PM 55.0 °F - 32.0 °F 42% 30.04 in 10.0 mi WSW 10.4 mph - N/A   Clear
8:53 PM 48.0 °F - 30.9 °F 52% 30.05 in 10.0 mi WSW 8.1 mph - N/A   Clear
9:53 PM 50.0 °F - 32.0 °F 50% 30.06 in 10.0 mi West 8.1 mph - N/A   Clear
10:53 PM 52.0 °F - 32.0 °F 47% 30.07 in 10.0 mi WNW 10.4 mph - N/A   Clear
11:53 PM 46.9 °F - 30.0 °F 52% 30.07 in 10.0 mi West 9.2 mph - N/A   Clear